Home   Weather   Visalia   Past weeks

Flag for USA Past Weather in Visalia, California, USA — Yesterday and Last 2 Weeks

61 °F


Feels Like: 61 °F
Forecast: 60 / 73 °F
Wind: 8 mph from Southwest

Location: Visalia Municipal

Current Time: Oct 28, 2016 at 8:56:48 AM

Latest Report: Oct 28, 2016 at 7:56 AM

Visibility: 2 mi

Pressure: 29.87 "Hg

Humidity: 97%

Dew Point: 60 °F

Location of VisaliaLocation

Past Weather in Visalia — Graph


Visalia Temperature Yesterday

Maximum temperature yesterday: 82 °F (at 1:56 PM)
Minimum temperature yesterday: 55 °F (at 6:56 AM)
Average temperature yesterday: 65 °F

High & Low Weather Summary for the Past Weeks

High83 °F (Oct 14, 3:56 PM)100% (Oct 28, 4:04 AM)30.23 "Hg (Oct 28, 4:04 AM)
Low45 °F (Oct 19, 5:56 AM)24% (Oct 14, 3:56 PM)29.83 "Hg (Oct 22, 4:56 PM)
Average65 °F62%30.01 "Hg
* Reported Oct 13 6:56 AM — Oct 28 6:56 AM, Visalia, Weather by CustomWeather, © 2016

Note: Actual official high and low records may vary slightly from our data, if they occured in-between our weather recording intervals... More about our weather records


Visalia Weather History for the Previous 24 Hours

Scroll right to see more
Time TempWeatherWind HumidityBarometerVisibility
6:56 AM
Fri, Oct 28
61 °FPassing clouds.10 mph93%29.85 "Hg8 mi
5:56 AM61 °FFog.12 mph97%29.88 "Hg1 mi
4:56 AM60 °FRain. Fog.15 mph100%29.91 "Hg2 mi
4:04 AM61 °FRain. Fog.5 mph100%29.95 "Hg2 mi
3:56 AM61 °FRain. Fog.8 mph97%29.96 "Hg3 mi
2:56 AM61 °FFog.7 mph97%29.95 "Hg5 mi
1:56 AM62 °FFog.3 mph93%29.89 "Hg5 mi
12:56 AM62 °FFog.No wind93%29.90 "Hg4 mi
11:56 PM
Thu, Oct 27
62 °FLight rain. Fog.3 mph93%29.93 "Hg6 mi
10:56 PM62 °FPassing clouds.No wind93%29.97 "Hg7 mi
9:56 PM64 °FPassing clouds.8 mph87%29.94 "Hg9 mi
8:56 PM64 °FRain. Overcast.10 mph87%29.96 "Hg10 mi
7:56 PM66 °FLight rain. Mostly cloudy.8 mph78%29.96 "Hg10 mi
6:56 PM66 °FLight rain. Overcast.5 mph84%29.98 "Hg10 mi
5:56 PM71 °FOvercast.10 mph63%29.94 "Hg10 mi
4:56 PM74 °FPartly sunny.6 mph53%29.93 "Hg10 mi
3:56 PM73 °FLight rain. Mostly cloudy.13 mph62%29.95 "Hg5 mi
2:56 PM82 °FPassing clouds.No wind29%29.93 "Hg10 mi
1:56 PM82 °FSunny.No wind29%29.94 "Hg10 mi
12:56 PM78 °FPartly sunny.3 mph31%29.97 "Hg10 mi
11:56 AM76 °FScattered clouds.3 mph35%30.00 "Hg10 mi
10:56 AM71 °FSunny.5 mph41%30.03 "Hg10 mi
9:56 AM64 °FSunny.5 mph54%30.05 "Hg10 mi
8:56 AM58 °FSunny.No wind72%30.04 "Hg10 mi
Weather by CustomWeather, © 2016

See weather overviewHow to use our weather pages